Location: Unspecified
(0.0000°N, 0.0000°E)
Time: 00:04:58
(UTC+02:00)

Cosmos 1125 Rocket - Visible Passes

Search period start: 28 May 2016 00:00
Search period end: 07 June 2016 00:00
Orbit: 757 x 781 km, 74.0° (Epoch: 26 May)

Date Brightness Start Highest point End Pass type
(mag) Time Alt. Az. Time Alt. Az. Time Alt. Az.
28 May 4.3 06:20:44 33° WNW 06:20:44 33° WNW 06:24:38 10° NNW visible
29 May 4.6 05:45:27 36° N 05:45:27 36° N 05:48:30 10° N visible
30 May 5.7 05:10:06 20° NNE 05:10:06 20° NNE 05:11:46 10° NNE visible
31 May 5.8 06:15:01 11° NW 06:15:01 11° NW 06:15:18 10° NW visible
01 Jun 5.9 05:39:33 12° NNW 05:39:33 12° NNW 05:40:00 10° NNW visible
